Simultaneous Nadir Overpasses (SNOs) Predictions

Prediction of SNOs between GOES-16 and METOP-B Satellite Orbit:

Table of predicted SNOs for the next 14.0 days since TLE Epoch: 1/8/2018
Index Date Time (GOES-16) GOES-16 Lat,Lon METOP-B Lat,Lon Distance(km) Time Diff (sec)
1 01/08/2018 14:34:05 0.01, -75.20 0.14, -75.64 50.47 80
2 01/11/2018 02:29:47 -0.01, -75.18 -0.01, -75.25 7.43 80
3 01/13/2018 14:27:59 0.01, -75.22 -0.06, -74.81 46.33 80
4 01/15/2018 02:46:59 -0.01, -75.20 -0.96, -79.40 479.27 80
5 01/16/2018 02:29:00 -0.01, -75.21 0.14, -74.41 90.94 80
6 01/17/2018 14:47:52 0.01, -75.26 0.84, -78.98 424.15 80
7 01/18/2018 14:24:33 0.02, -75.27 -0.27, -73.98 146.26 80
8 01/20/2018 02:43:33 -0.02, -75.26 -0.75, -78.58 378.26 80
9 01/21/2018 02:25:33 -0.03, -75.27 0.36, -73.59 192.63 80




NCC Satellite Simultaneous Nadir Overpasses (SNOs) Prediction Service
